Augusta, GA

8:46 PM EST on February 27, 2017 (GMT -0500)
Augusta Regional At Bush

Weather History for KAGS - February, 2014

Change the Weather History Date:

Tuesday, February 11, 2014

  Actual Average Record
Temperature  
Mean Temperature 41 °F 48 °F  
Max Temperature 47 °F 61 °F 81 °F (1932)
Min Temperature 34 °F 35 °F 12 °F (1973)
Degree Days  
Heating Degree Days 24 17  
Month to date heating degree days 193 193  
Since 1 July heating degree days 1894 1778  
Cooling Degree Days 0 0  
Month to date cooling degree days 0 0  
Year to date cooling degree days 0 1  
Moisture  
Dew Point 35 °F    
Average Humidity 93    
Maximum Humidity 100    
Minimum Humidity 85    
Precipitation  
Precipitation 0.49 in 0.13 in 1.30 in (2013)
Month to date precipitation 0.89 1.45  
Year to date precipitation 3.37 5.36  
Sea Level Pressure  
Sea Level Pressure 30.24 in    
Wind  
Wind Speed 10 mph (NE)    
Max Wind Speed 16 mph    
Max Gust Speed 22 mph    
Visibility 6 miles    
Events Rain    
T = Trace of Precipitation, MM = Missing Value Source: NWS Daily Summary

Daily Weather History Graph

Daily Weather History Graph

Search for Another Location

Airport or City:

Trip Planner

Search our weather history database for the weather conditions in past years. The results will help you decide how hot, cold, wet, or windy it might be!

Date:

Astronomy

Feb. 11, 2014 Rise Set
Actual Time 7:15 AM EST 6:09 PM EST
Civil Twilight 6:50 AM EST 6:34 PM EST
Nautical Twilight 6:20 AM EST 7:03 PM EST
Astronomical Twilight 5:51 AM EST 7:32 PM EST
Moon 3:32 PM EST (2/11) 4:47 AM EST (2/11)
Length of Visible Light 11h 44m
Length of Day
10h 53m
Waxing Gibbous, 90% of the Moon is Illuminated
Feb 11
Waxing Gibbous
Feb 14
Full
Feb 22
Last Quarter
Mar 1
New
Mar 8
First Quarter

Hourly Weather History & Observations

Time (EST) Temp. Windchill Dew Point Humidity Pressure Visibility Wind Dir Wind Speed Gust Speed Precip Events Conditions
12:53 AM 44.1 °F 37.7 °F 37.9 °F 79% 30.15 in 10.0 mi NE 12.7 mph - 0.00 in Rain Light Rain
1:53 AM 41.0 °F 33.5 °F 37.0 °F 86% 30.15 in 10.0 mi NE 13.8 mph - 0.00 in   Overcast
2:09 AM 41.0 °F 37.1 °F 37.0 °F 86% 30.15 in 10.0 mi ENE 5.8 mph - N/A   Overcast
2:30 AM 41.0 °F 37.1 °F 37.0 °F 86% 30.15 in 8.0 mi NE 5.8 mph - 0.00 in Rain Light Rain
2:53 AM 39.9 °F 33.9 °F 37.0 °F 89% 30.16 in 8.0 mi NNE 9.2 mph - 0.00 in Rain Light Rain
3:53 AM 39.9 °F 35.1 °F 37.9 °F 93% 30.18 in 8.0 mi NNE 6.9 mph - 0.03 in Rain Light Rain
4:53 AM 39.9 °F 35.1 °F 37.9 °F 93% 30.18 in 8.0 mi NE 6.9 mph - 0.04 in Rain Light Rain
5:27 AM 39.0 °F 34.8 °F 37.9 °F 96% 30.17 in 10.0 mi ENE 5.8 mph - 0.01 in Rain Light Rain
5:37 AM 39.0 °F 33.4 °F 37.0 °F 93% 30.17 in 10.0 mi ENE 8.1 mph - 0.01 in Rain Light Rain
5:53 AM 39.0 °F 32.8 °F 37.0 °F 93% 30.17 in 10.0 mi ENE 9.2 mph - 0.02 in Rain Light Rain
6:53 AM 39.0 °F 33.4 °F 37.0 °F 93% 30.20 in 7.0 mi NE 8.1 mph - 0.02 in Rain Rain
7:53 AM 37.9 °F 30.9 °F 36.0 °F 93% 30.22 in 8.0 mi NNE 10.4 mph - 0.06 in Rain Light Rain
8:31 AM 39.0 °F 35.7 °F 37.0 °F 93% 30.24 in 4.0 mi North 4.6 mph - 0.04 in Rain Rain
8:53 AM 37.9 °F 32.1 °F 37.0 °F 97% 30.25 in 4.0 mi NE 8.1 mph - 0.06 in Rain Rain
9:53 AM 39.0 °F 34.0 °F 36.0 °F 89% 30.26 in 7.0 mi NE 6.9 mph - 0.07 in Rain Light Rain
10:04 AM 37.9 °F 32.1 °F 37.0 °F 97% 30.26 in 7.0 mi NNE 8.1 mph - 0.01 in Rain Light Rain
10:53 AM 37.9 °F 30.5 °F 36.0 °F 93% 30.27 in 3.0 mi NE 11.5 mph - 0.03 in Rain Light Rain
11:32 AM 37.9 °F 32.7 °F 36.0 °F 93% 30.26 in 4.0 mi NE 6.9 mph - 0.01 in Rain Light Rain
11:53 AM 37.9 °F 30.5 °F 36.0 °F 93% 30.27 in 3.0 mi ENE 11.5 mph - 0.03 in Rain Light Rain
12:07 PM 37.9 °F 32.7 °F 36.0 °F 93% 30.26 in 3.0 mi NE 6.9 mph - 0.02 in Rain Rain
12:12 PM 37.9 °F 32.7 °F 36.0 °F 93% 30.26 in 3.0 mi NNE 6.9 mph - 0.03 in Rain Rain
12:19 PM 37.9 °F 32.7 °F 36.0 °F 93% 30.26 in 3.0 mi NNE 6.9 mph - 0.04 in Rain Light Rain
12:53 PM 39.0 °F 33.4 °F 37.0 °F 93% 30.25 in 3.0 mi NNE 8.1 mph - 0.06 in Rain Light Rain
1:53 PM 39.0 °F 31.8 °F 36.0 °F 89% 30.23 in 4.0 mi NE 11.5 mph - 0.02 in Rain Light Rain
1:57 PM 39.0 °F 31.8 °F 36.0 °F 89% 30.24 in 4.0 mi NE 11.5 mph - 0.00 in Rain Light Rain
2:53 PM 37.9 °F 32.1 °F 36.0 °F 93% 30.23 in 3.0 mi NE 8.1 mph - 0.02 in Rain Light Rain
3:15 PM 37.9 °F 31.5 °F 36.0 °F 93% 30.23 in 2.5 mi NNE 9.2 mph - 0.00 in Rain Light Rain
3:17 PM 37.9 °F 30.9 °F 36.0 °F 93% 30.23 in 2.5 mi NNE 10.4 mph - 0.00 in Rain Light Rain
3:53 PM 37.0 °F 28.5 °F 35.1 °F 93% 30.23 in 2.5 mi ENE 13.8 mph - 0.01 in Rain Light Rain
3:55 PM 37.0 °F 29.3 °F 35.1 °F 93% 30.23 in 3.0 mi ENE 11.5 mph - 0.00 in   Overcast
4:51 PM 37.4 °F 29.8 °F 35.6 °F 93% 30.25 in 2.5 mi NE 11.5 mph - 0.00 in   Overcast
4:53 PM 37.0 °F 29.3 °F 34.0 °F 89% 30.25 in 2.5 mi NE 11.5 mph - 0.00 in   Overcast
5:53 PM 36.0 °F 29.0 °F 34.0 °F 93% 30.27 in 2.5 mi NE 9.2 mph - 0.00 in Rain Light Rain
6:06 PM 36.0 °F 28.5 °F 34.0 °F 93% 30.27 in 3.0 mi NE 10.4 mph - 0.00 in   Overcast
6:23 PM 36.0 °F 28.5 °F 34.0 °F 93% 30.27 in 3.0 mi NE 10.4 mph - 0.00 in Rain Light Rain
6:53 PM 36.0 °F 29.6 °F 34.0 °F 93% 30.30 in 6.0 mi NNE 8.1 mph - 0.01 in Rain Light Rain
7:02 PM 36.0 °F 30.3 °F 34.0 °F 93% 30.29 in 7.0 mi NNE 6.9 mph - 0.01 in Rain Light Rain
7:22 PM 36.0 °F 28.5 °F 33.1 °F 89% 30.30 in 10.0 mi ENE 10.4 mph - 0.01 in Rain Light Rain
7:53 PM 35.1 °F 27.4 °F 33.1 °F 92% 30.31 in 10.0 mi NE 10.4 mph - 0.01 in   Overcast
8:21 PM 35.1 °F 27.9 °F 33.1 °F 92% 30.31 in 10.0 mi ENE 9.2 mph - N/A   Overcast
8:53 PM 35.1 °F 29.3 °F 33.1 °F 92% 30.31 in 10.0 mi ENE 6.9 mph - N/A   Overcast
9:53 PM 35.1 °F 28.6 °F 33.1 °F 92% 30.32 in 10.0 mi ENE 8.1 mph - N/A   Overcast
10:53 PM 35.1 °F 28.6 °F 32.0 °F 89% 30.31 in 10.0 mi ENE 8.1 mph - N/A   Overcast
11:25 PM 35.1 °F 27.9 °F 30.9 °F 85% 30.33 in 10.0 mi East 9.2 mph - N/A   Overcast
11:43 PM 34.0 °F 27.2 °F 30.9 °F 89% 30.32 in 10.0 mi East 8.1 mph - N/A   Overcast
11:53 PM 34.0 °F 26.0 °F 30.0 °F 85% 30.31 in 10.0 mi East 10.4 mph - 0.00 in Rain Light Rain